User: anonymous   Login
Location: Taukkyan
(23.1052°N, 94.0030°E)
Time: 22:47:17
(UTC+00:00)
Language:

GPS 2-14 Rocket1 - Orbit

View from above orbital plane
View from above orbital plane
View from above satellite
View from above satellite

Ground track
Ground track

The orbit data is extracted from the following two-line orbital elements,

1 22015U 92039B   20262.92860365  .00001463  00000-0  41050-4 0  9992
2 22015  20.7143 105.2311 0047287 150.3220 209.9914 15.19054179571721
Epoch (UTC): 18 September 2020 22:17:11
Eccentricity: 0.0047287
inclination: 20.7143°
perigee height: 476 km
apogee height: 541 km
right ascension of ascending node: 105.2311°
argument of perigee: 150.3220°
revolutions per day: 15.19054179
mean anomaly at epoch: 209.9914°
orbit number at epoch: 57172

The dashed part of the orbit path shows where the satellite is in the earth's shadow,  

DLR